| time (UTC) | temp C | wind direction | speed KPH | gust KPH | rain 1hr cm | rain 24hr cm | rain mn cm | humidity % | barometer mb |
| 20260904232515 | 22 | 45 | 1.6 | 8.0 | 0.00 | 0.00 | 0.00 | 29 | 1026.4 |
| 20260904231515 | 22 | 23 | 1.6 | 8.0 | 0.00 | 0.00 | 0.00 | 29 | 1026.3 |
| 20260904230537 | 22 | 0.0 | 4.8 | 0.00 | 0.00 | 0.00 | 29 | 1026.2 | |
| 20260904225537 | 22 | 0.0 | 4.8 | 0.00 | 0.00 | 0.00 | 28 | 1026.2 | |
| 20260904224517 | 22 | 23 | 1.6 | 8.0 | 0.00 | 0.00 | 0.00 | 29 | 1026.3 |
| 20260904223517 | 22 | 90 | 3.2 | 8.0 | 0.00 | 0.00 | 0.00 | 28 | 1026.8 |
| 20260904222517 | 21 | 0.0 | 3.2 | 0.00 | 0.00 | 0.00 | 30 | 1026.5 | |
| 20260904221517 | 21 | 45 | 1.6 | 6.4 | 0.00 | 0.00 | 0.00 | 30 | 1026.3 |
| 20260904220537 | 22 | 68 | 3.2 | 12.9 | 0.00 | 0.00 | 0.00 | 28 | 1026.2 |
| 20260904215517 | 22 | 68 | 1.6 | 4.8 | 0.00 | 0.00 | 0.00 | 29 | 1026.1 |
| 20260904214557 | 22 | 68 | 3.2 | 12.9 | 0.00 | 0.00 | 0.00 | 28 | 1026.1 |
| 20260904213517 | 22 | 68 | 1.6 | 8.0 | 0.00 | 0.00 | 0.00 | 28 | 1026.8 |
| 20260904212517 | 22 | 113 | 3.2 | 9.7 | 0.00 | 0.00 | 0.00 | 27 | 1026.8 |
| 20260904211517 | 23 | 45 | 1.6 | 4.8 | 0.00 | 0.00 | 0.00 | 26 | 1026.8 |
| 20260904210517 | 23 | 45 | 3.2 | 14.5 | 0.00 | 0.00 | 0.00 | 26 | 1026.7 |
| 20260904205517 | 24 | 90 | 3.2 | 11.3 | 0.00 | 0.00 | 0.00 | 25 | 1027.4 |
| 20260904204517 | 24 | 23 | 3.2 | 9.7 | 0.00 | 0.00 | 0.00 | 25 | 1027.5 |
| 20260904203517 | 23 | 23 | 3.2 | 11.3 | 0.00 | 0.00 | 0.00 | 25 | 1027.5 |
| 20260904202517 | 24 | 68 | 1.6 | 9.7 | 0.00 | 0.00 | 0.00 | 25 | 1027.6 |
| 20260904201517 | 25 | 0 | 1.6 | 6.4 | 0.00 | 0.00 | 0.00 | 24 | 1028.2 |
| 20260904200516 | 26 | 23 | 6.4 | 19.3 | 0.00 | 0.00 | 0.00 | 22 | 1029.4 |
| 20260904195517 | 26 | 45 | 1.6 | 9.7 | 0.00 | 0.00 | 0.00 | 23 | 1029.5 |
| 20260904194517 | 26 | 23 | 4.8 | 14.5 | 0.00 | 0.00 | 0.00 | 23 | 1029.6 |
| 20260904193516 | 25 | 90 | 8.0 | 25.7 | 0.00 | 0.00 | 0.00 | 24 | 1029.8 |
| 20260904192517 | 24 | 23 | 8.0 | 22.5 | 0.00 | 0.00 | 0.00 | 25 | 1029.0 |
| 20260904191516 | 23 | 45 | 3.2 | 8.0 | 0.00 | 0.00 | 0.00 | 26 | 1028.5 |
| 20260904190517 | 23 | 23 | 1.6 | 8.0 | 0.00 | 0.00 | 0.00 | 25 | 1028.5 |
| 20260904185516 | 23 | 315 | 4.8 | 14.5 | 0.00 | 0.00 | 0.00 | 28 | 1028.3 |
| 20260904184516 | 24 | 90 | 4.8 | 14.5 | 0.00 | 0.00 | 0.00 | 25 | 1029.0 |
| 20260904183536 | 23 | 68 | 4.8 | 12.9 | 0.00 | 0.00 | 0.00 | 26 | 1029.0 |
| 20260904182556 | 23 | 23 | 4.8 | 20.9 | 0.00 | 0.00 | 0.00 | 26 | 1028.6 |
| 20260904181516 | 22 | 338 | 8.0 | 16.1 | 0.00 | 0.00 | 0.00 | 26 | 1028.6 |
| 20260904180517 | 22 | 68 | 4.8 | 12.9 | 0.00 | 0.00 | 0.00 | 29 | 1028.5 |
| 20260904175516 | 21 | 23 | 8.0 | 16.1 | 0.00 | 0.00 | 0.00 | 31 | 1028.2 |
| 20260904174516 | 20 | 203 | 6.4 | 14.5 | 0.00 | 0.00 | 0.00 | 29 | 1027.2 |
| 20260904173516 | 20 | 180 | 3.2 | 14.5 | 0.00 | 0.00 | 0.00 | 31 | 1027.6 |
| 20260904172516 | 20 | 293 | 4.8 | 12.9 | 0.00 | 0.00 | 0.00 | 30 | 1026.8 |
| 20260904171516 | 19 | 225 | 4.8 | 12.9 | 0.00 | 0.00 | 0.00 | 30 | 1027.1 |
| 20260904170516 | 20 | 293 | 3.2 | 9.7 | 0.00 | 0.00 | 0.00 | 30 | 1027.6 |
| 20260904165516 | 20 | 0.0 | 3.2 | 0.00 | 0.00 | 0.00 | 32 | 1027.6 | |
| 20260904164557 | 19 | 338 | 6.4 | 16.1 | 0.00 | 0.00 | 0.00 | 30 | 1026.8 |
| 20260904163516 | 18 | 293 | 4.8 | 12.9 | 0.00 | 0.00 | 0.00 | 30 | 1026.8 |
| 20260904162516 | 18 | 270 | 4.8 | 11.3 | 0.00 | 0.00 | 0.00 | 30 | 1026.7 |
| 20260904161516 | 18 | 270 | 4.8 | 12.9 | 0.00 | 0.00 | 0.00 | 30 | 1026.7 |
| 20260904160516 | 18 | 315 | 3.2 | 12.9 | 0.00 | 0.00 | 0.00 | 31 | 1026.6 |
| 20260904155516 | 18 | 293 | 1.6 | 4.8 | 0.00 | 0.00 | 0.00 | 33 | 1026.6 |
| 20260904154516 | 17 | 293 | 3.2 | 8.0 | 0.00 | 0.00 | 0.00 | 33 | 1026.1 |
| 20260904153636 | 17 | 248 | 3.2 | 9.7 | 0.00 | 0.00 | 0.00 | 35 | 1026.7 |
| 20260904152516 | 17 | 270 | 1.6 | 4.8 | 0.00 | 0.00 | 0.00 | 35 | 1026.1 |
| 20260904151516 | 17 | 0.0 | 3.2 | 0.00 | 0.00 | 0.00 | 36 | 1026.1 | |
| 20260904150516 | 16 | 0.0 | 3.2 | 0.00 | 0.00 | 0.00 | 37 | 1025.6 | |
| 20260904145516 | 15 | 0.0 | 4.8 | 0.00 | 0.00 | 0.00 | 38 | 1025.6 | |
| 20260904144516 | 15 | 225 | 1.6 | 3.2 | 0.00 | 0.00 | 0.00 | 39 | 1024.9 |
| 20260904143516 | 15 | 225 | 1.6 | 4.8 | 0.00 | 0.00 | 0.00 | 39 | 1024.8 |
| 20260904142536 | 14 | 225 | 1.6 | 4.8 | 0.00 | 0.00 | 0.00 | 40 | 1024.9 |
| 20260904141556 | 13 | 203 | 1.6 | 3.2 | 0.00 | 0.00 | 0.00 | 40 | 1024.9 |
| 20260904140515 | 13 | 248 | 1.6 | 4.8 | 0.00 | 0.00 | 0.00 | 40 | 1025.4 |
| 20260904135536 | 13 | 270 | 3.2 | 6.4 | 0.00 | 0.00 | 0.00 | 40 | 1025.1 |
| 20260904134516 | 13 | 248 | 4.8 | 8.0 | 0.00 | 0.00 | 0.00 | 40 | 1024.9 |
| 20260904133515 | 13 | 248 | 4.8 | 12.9 | 0.00 | 0.00 | 0.00 | 40 | 1025.9 |
| 20260904132516 | 13 | 248 | 4.8 | 8.0 | 0.00 | 0.00 | 0.00 | 39 | 1025.1 |
| 20260904131536 | 12 | 248 | 4.8 | 8.0 | 0.00 | 0.00 | 0.00 | 39 | 1025.1 |
| 20260904130516 | 12 | 248 | 3.2 | 6.4 | 0.00 | 0.00 | 0.00 | 39 | 1026.1 |
| 20260904125516 | 13 | 248 | 3.2 | 6.4 | 0.00 | 0.00 | 0.00 | 38 | 1026.5 |
| 20260904124536 | 13 | 225 | 3.2 | 6.4 | 0.00 | 0.00 | 0.00 | 37 | 1026.3 |
| 20260904123515 | 13 | 203 | 4.8 | 8.0 | 0.00 | 0.00 | 0.00 | 37 | 1027.4 |
| 20260904122515 | 13 | 203 | 6.4 | 9.7 | 0.00 | 0.00 | 0.00 | 36 | 1027.9 |
| 20260904121515 | 13 | 180 | 6.4 | 12.9 | 0.00 | 0.00 | 0.00 | 37 | 1027.1 |
| 20260904120515 | 13 | 180 | 6.4 | 8.0 | 0.00 | 0.00 | 0.00 | 37 | 1027.2 |
| 20260904115515 | 13 | 158 | 3.2 | 4.8 | 0.00 | 0.00 | 0.00 | 37 | 1027.2 |
| 20260904114535 | 13 | 0.0 | 3.2 | 0.00 | 0.00 | 0.00 | 36 | 1027.2 | |
| 20260904113515 | 13 | 0.0 | 3.2 | 0.00 | 0.00 | 0.00 | 36 | 1027.8 | |
| 20260904112515 | 13 | 158 | 1.6 | 3.2 | 0.00 | 0.00 | 0.00 | 36 | 1028.0 |
| 20260904111515 | 13 | 180 | 1.6 | 4.8 | 0.00 | 0.00 | 0.00 | 35 | 1027.8 |
| 20260904110517 | 14 | 135 | 1.6 | 3.2 | 0.00 | 0.00 | 0.00 | 35 | 1027.7 |
| 20260904105518 | 13 | 0.0 | 3.2 | 0.00 | 0.00 | 0.00 | 35 | 1027.7 | |
| 20260904104517 | 13 | 315 | 1.6 | 4.8 | 0.00 | 0.00 | 0.00 | 35 | 1027.7 |
| 20260904103517 | 13 | 0.0 | 3.2 | 0.00 | 0.00 | 0.00 | 36 | 1027.1 | |
| 20260904102517 | 13 | 180 | 3.2 | 4.8 | 0.00 | 0.00 | 0.00 | 36 | 1027.0 |
| 20260904101517 | 13 | 203 | 3.2 | 6.4 | 0.00 | 0.00 | 0.00 | 36 | 1027.2 |
| 20260904100517 | 13 | 180 | 3.2 | 4.8 | 0.00 | 0.00 | 0.00 | 36 | 1028.5 |
| 20260904095517 | 13 | 180 | 3.2 | 6.4 | 0.00 | 0.00 | 0.00 | 35 | 1028.5 |
| 20260904094517 | 13 | 203 | 3.2 | 4.8 | 0.00 | 0.00 | 0.00 | 36 | 1028.4 |
| 20260904093517 | 13 | 180 | 3.2 | 4.8 | 0.00 | 0.00 | 0.00 | 36 | 1027.2 |
| 20260904092517 | 13 | 203 | 3.2 | 4.8 | 0.00 | 0.00 | 0.00 | 35 | 1027.1 |
| 20260904091517 | 14 | 203 | 1.6 | 4.8 | 0.00 | 0.00 | 0.00 | 35 | 1027.1 |
| 20260904090537 | 13 | 0.0 | 3.2 | 0.00 | 0.00 | 0.00 | 36 | 1027.2 | |
| 20260904085517 | 13 | 0.0 | 3.2 | 0.00 | 0.00 | 0.00 | 37 | 1027.2 | |
| 20260904084517 | 13 | 225 | 1.6 | 4.8 | 0.00 | 0.00 | 0.00 | 37 | 1027.2 |
| 20260904083517 | 13 | 225 | 3.2 | 8.0 | 0.00 | 0.00 | 0.00 | 36 | 1026.7 |
| 20260904082517 | 13 | 225 | 3.2 | 6.4 | 0.00 | 0.00 | 0.00 | 35 | 1026.6 |
| 20260904081517 | 14 | 225 | 3.2 | 6.4 | 0.00 | 0.00 | 0.00 | 35 | 1026.7 |
| 20260904080517 | 14 | 225 | 1.6 | 4.8 | 0.00 | 0.00 | 0.00 | 35 | 1026.2 |
| 20260904075517 | 15 | 225 | 3.2 | 4.8 | 0.00 | 0.00 | 0.00 | 36 | 1026.1 |
| 20260904074516 | 15 | 0.0 | 3.2 | 0.00 | 0.00 | 0.00 | 38 | 1026.9 | |
| 20260904073516 | 15 | 180 | 4.8 | 6.4 | 0.00 | 0.00 | 0.00 | 39 | 1026.9 |
| 20260904072537 | 15 | 180 | 1.6 | 4.8 | 0.00 | 0.00 | 0.00 | 38 | 1027.0 |
| 20260904071516 | 15 | 180 | 3.2 | 6.4 | 0.00 | 0.00 | 0.00 | 38 | 1027.0 |
| 20260904070517 | 15 | 180 | 1.6 | 4.8 | 0.00 | 0.00 | 0.00 | 38 | 1026.5 |
| 20260904065517 | 15 | 158 | 1.6 | 4.8 | 0.00 | 0.00 | 0.00 | 38 | 1026.5 |
| 20260904064517 | 15 | 180 | 3.2 | 4.8 | 0.00 | 0.00 | 0.00 | 39 | 1026.6 |
| 20260904063536 | 15 | 158 | 3.2 | 3.2 | 0.00 | 0.00 | 0.00 | 40 | 1025.4 |
| 20260904062517 | 15 | 135 | 1.6 | 3.2 | 0.00 | 0.00 | 0.00 | 40 | 1025.5 |
| 20260904061517 | 15 | 135 | 3.2 | 4.8 | 0.00 | 0.00 | 0.00 | 41 | 1025.6 |
| 20260904060516 | 15 | 158 | 4.8 | 6.4 | 0.00 | 0.00 | 0.00 | 41 | 1025.5 |
| 20260904055517 | 15 | 180 | 3.2 | 4.8 | 0.00 | 0.00 | 0.00 | 41 | 1025.6 |
| 20260904054517 | 15 | 180 | 3.2 | 4.8 | 0.00 | 0.00 | 0.00 | 41 | 1025.6 |
| 20260904053517 | 14 | 0.0 | 3.2 | 0.00 | 0.00 | 0.00 | 42 | 1025.0 | |
| 20260904052517 | 14 | 158 | 1.6 | 4.8 | 0.00 | 0.00 | 0.00 | 43 | 1025.0 |
| 20260904051517 | 14 | 203 | 3.2 | 4.8 | 0.00 | 0.00 | 0.00 | 43 | 1025.0 |
| 20260904050517 | 14 | 203 | 1.6 | 3.2 | 0.00 | 0.00 | 0.00 | 43 | 1024.3 |
| 20260904045517 | 14 | 203 | 1.6 | 3.2 | 0.00 | 0.00 | 0.00 | 44 | 1024.5 |
| 20260904044517 | 15 | 0.0 | 3.2 | 0.00 | 0.00 | 0.00 | 43 | 1024.6 | |
| 20260904043537 | 15 | 0 | 1.6 | 3.2 | 0.00 | 0.00 | 0.00 | 43 | 1024.5 |
| 20260904042517 | 15 | 23 | 3.2 | 6.4 | 0.00 | 0.00 | 0.00 | 44 | 1024.7 |
| 20260904041517 | 15 | 0 | 4.8 | 12.9 | 0.00 | 0.00 | 0.00 | 43 | 1024.7 |
| 20260904040517 | 15 | 0 | 4.8 | 12.9 | 0.00 | 0.00 | 0.00 | 43 | 1024.2 |
| 20260904035517 | 15 | 0 | 4.8 | 11.3 | 0.00 | 0.00 | 0.00 | 43 | 1024.3 |
| 20260904034516 | 15 | 0 | 4.8 | 11.3 | 0.00 | 0.00 | 0.00 | 43 | 1024.5 |
| 20260904033537 | 15 | 23 | 4.8 | 11.3 | 0.00 | 0.00 | 0.00 | 43 | 1023.9 |
| 20260904032517 | 15 | 0 | 6.4 | 12.9 | 0.00 | 0.00 | 0.00 | 43 | 1024.3 |
| 20260904031536 | 15 | 0 | 4.8 | 11.3 | 0.00 | 0.00 | 0.00 | 41 | 1024.1 |
| 20260904030516 | 15 | 0 | 4.8 | 11.3 | 0.00 | 0.00 | 0.00 | 41 | 1024.3 |
| 20260904025516 | 15 | 0 | 6.4 | 14.5 | 0.00 | 0.00 | 0.00 | 40 | 1023.6 |
| 20260904024536 | 15 | 0 | 8.0 | 17.7 | 0.00 | 0.00 | 0.00 | 39 | 1023.6 |
| 20260904023516 | 15 | 0 | 6.4 | 16.1 | 0.00 | 0.00 | 0.00 | 39 | 1023.5 |
| 20260904022537 | 16 | 23 | 4.8 | 11.3 | 0.00 | 0.00 | 0.00 | 38 | 1022.7 |
| 20260904021516 | 16 | 23 | 3.2 | 8.0 | 0.00 | 0.00 | 0.00 | 38 | 1023.2 |
| 20260904020536 | 16 | 23 | 3.2 | 6.4 | 0.00 | 0.00 | 0.00 | 38 | 1022.9 |
| 20260904015516 | 16 | 23 | 3.2 | 8.0 | 0.00 | 0.00 | 0.00 | 37 | 1022.3 |
| 20260904014517 | 17 | 23 | 1.6 | 6.4 | 0.00 | 0.00 | 0.00 | 36 | 1022.9 |
| 20260904013516 | 18 | 45 | 1.6 | 8.0 | 0.00 | 0.00 | 0.00 | 34 | 1023.4 |
| 20260904012517 | 18 | 68 | 1.6 | 6.4 | 0.00 | 0.00 | 0.00 | 33 | 1023.5 |
| 20260904011516 | 19 | 23 | 3.2 | 8.0 | 0.00 | 0.00 | 0.00 | 32 | 1024.1 |
| 20260904010516 | 20 | 23 | 1.6 | 4.8 | 0.00 | 0.00 | 0.00 | 32 | 1024.1 |
| 20260904005516 | 20 | 45 | 1.6 | 3.2 | 0.00 | 0.00 | 0.00 | 31 | 1024.7 |
| 20260904004516 | 21 | 68 | 1.6 | 4.8 | 0.00 | 0.00 | 0.00 | 30 | 1025.3 |
| 20260904003516 | 22 | 0.0 | 3.2 | 0.00 | 0.00 | 0.00 | 29 | 1025.5 | |
| 20260904002516 | 23 | 23 | 3.2 | 8.0 | 0.00 | 0.00 | 0.00 | 27 | 1026.1 |
| 20260904001516 | 24 | 45 | 1.6 | 6.4 | 0.00 | 0.00 | 0.00 | 26 | 1026.9 |
| 20260904000516 | 25 | 68 | 3.2 | 9.7 | 0.00 | 0.00 | 0.00 | 26 | 1027.5 |
| 20260903235516 | 25 | 0 | 3.2 | 11.3 | 0.00 | 0.00 | 0.00 | 24 | 1027.3 |
| 20260903234536 | 25 | 23 | 6.4 | 14.5 | 0.00 | 0.00 | 0.00 | 25 | 1027.4 |
| 20260903233516 | 25 | 45 | 4.8 | 14.5 | 0.00 | 0.00 | 0.00 | 26 | 1027.5 |